COSMOS 2251 DEB, 35888

Orbit data source: Space-Track

COSMOS 2251 DEB, 35888 is space debris in LEO originally from a launch on Wed, 16 Jun 1993 UTC launched from the Plesetsk Missile And Space Complex (PKMTR). The debris from Iridium 33, an American commercial communications satellite, has been tracked extensively since its accidental collision with the defunct Russian satellite Cosmos 2251 in 2009. This event, occurring at high speed in low Earth orbit (LEO), generated thousands of pieces of space debris, significantly increasing the risk of further collisions. The Iridium 33 debris cloud has impacted space traffic management and orbital debris mitigation strategies, making it a subject of ongoing study in space situational awareness.

Loading next visibility...
Identifier
35888, 1993-036AUB
Orbit
LEO
Country
Flag of CISCIS
Related business
Manufacturer
Unknown
Mission
Spacecraft
Bus & Motor
Unknown
Mass
Unknown
Launch date (UTC)
1993-06-16 (33 years ago)
Launch vehicle
Unknown
Launch site
Plesetsk Missile And Space Complex (PKMTR)
Object type
Payload
Rocket body
Debris
Shape & HBR
Unknown shape, 0.1 m
Radar Cross Section
Small (<0.1 m²)

Expand to show TLE details & history
Last TLE update: 20 hours ago

TLE from 20 hours ago
0 COSMOS 2251 DEB
1 35888U 93036AUB 26037.26778836  .00002066  00000-0  44289-3 0  9992
2 35888  74.0304 250.9476 0049586   7.6610 352.5301 14.58590244870834
Epoch: 2026-02-06T06:25Z
TLE epoch observation values (Epoch: 2026-02-06T06:25:36.914Z)
Latitude
0.00005°
Longitude
18.1357°
Altitude
665.576 km
Speed
7.543 km/s
True Right ascension
16h 43m 47s
True Declination
0° 00' 00"
Sunlit
Object was in daylight at epoch
Visualization orbit readout
Latitude
Unknown
Longitude
Unknown
Altitude
Unknown
Speed
Unknown
Apparent Right ascension
Unknown
Apparent Declination
Unknown
Sunlit
N/A
Visualization observer readout
Local Sidereal Time
04:19:20
Azimuth
Unknown
Elevation
Unknown
Doppler factor
Unknown
Orbital elements
Apogee altitude
730.404 km
Perigee altitude
660.255 km
Semi-major axis
7,073.466 km
Eccentricity
0.00496
Inclination
74.0304°
RAAN
250.9476°
Arg. of periapsis
7.661°
True anomaly
352.45577°
Mean anomaly
352.5301°
Eccentric anomaly
352.49298°
Mean motion
3.64834 °/min
Orbital period
98.68 mins
BSTAR
0.00044289
Loading maneuver chart data...
Computing Atmospheric mass density...

Documentation

Showing up to 5 results
|